www.pogodaiklimat.ru

Погода и климат >> Архив погоды >> Великобритания >> Одихем


ПОГОДА в Одихеме

  • Прогноз погоды в Одихеме
  • Монитор погоды в Одихеме

АРХИВ ПОГОДЫ в Одихеме

Время (UTC), дата Ветер
(напр.,м/с)
 
Видим.   Явления Облачность Т
(С)
Тd
(С)
f
(%)
Тe
(С)
Тes
(С)
Комфортность P
(гПа)
Po
(гПа)
Тmin
(С)
Tmax
(С)
R
(мм)
R24
(мм)
S
(см)
16 18.08 ЮЗ 7 45 км осадки на расстоянии 9/6 1200 м
[Sc diur, vesp Ac cuf]
+18.4 +11.2 63 +18 +18 1006.8 992.9
17 18.08 ЮЗ 6
{13}
30 км н/о +17.4 +11.8 70 +17 +17 1007.2 993.3
18 18.08 ЮЗ 8 4000 м ливневой дождь 9/5 750 м
[Cu med, cong Ac cuf]
+17.5 +11.6 68 +16 +16 1007.3 993.5 +20.5 2
19 18.08 ЮЗ 7
{15}
40 км в посл. час ливневой дождь 6/6 1200 м
[Cu Sc]
+14.2 +12.9 92 +12 +12 1008.2 994.2
20 18.08 ЮЗ 4 40 км 3/3 800 м
[Cu hum]
+13.6 +12.6 94 +12 +12 1008.8 994.7
21 18.08 ЮЗ 4 40 км {ливн. осадки} ясно +13.7 +12.6 93 +12 +12 1009.4 995.3
22 18.08 ЮЗ 6 30 км ясно +13.6 +11.8 89 +11 +11 1010.0 995.9
23 18.08 ЮЗ 6 30 км ясно +13.1 +10.8 86 +11 +11 1010.4 996.3
00 19.08 ЮЗ 5 30 км {ливн. осадки} ясно +13.0 +11.3 89 +11 +11 1010.6 996.4 2
01 19.08 ЮЗ 6 30 км 6/0
[Ac trans]
+12.9 +11.2 89 +10 +10 1010.8 996.6
02 19.08 ЮЗ 6 30 км ясно +12.8 +11.3 91 +10 +10 1010.9 996.8
03 19.08 ЮЗ 6 18 км н/о +12.5 +11.2 92 +10 +10 1011.0 996.8
04 19.08 ЮЗ 6 19 км н/о +12.7 +11.1 90 +10 +10 1011.5 997.3
05 19.08 ЮЗ 6 20 км 4/4 600 м
[Cu Sc]
+12.4 +11.1 92 +10 +10 1011.9 997.7
06 19.08 ЮЗ 6 20 км 4/4 240 м
[Sc]
+12.6 +11.2 91 +10 +10 1012.4 998.2 +12.3 2
07 19.08 ЮЗ 7 20 км 4/4 240 м
[Sc]
+13.5 +11.6 88 +11 +11 1012.7 998.5
08 19.08 ЮЗ 7 30 км 3/3 450 м
[Cu Sc]
+14.7 +11.8 83 +13 +13 1013.0 999.0
09 19.08 ЮЗ 8 30 км 5/5 540 м
[Cu hum]
+16.1 +12.0 77 +14 +15 1013.6 999.6
10 19.08 ЮЗ 7 10 км слаб. ливневой дождь 8/8 660 м
[Cu med, cong]
+16.2 +11.9 76 +15 +16 1013.9 999.9
11 19.08 ЮЗ 7 10 км слаб. ливневой дождь 6/6 600 м
[Cu med, cong Ac trans]
+18.0 +12.7 71 +17 +19 1014.0 1000.1
12 19.08 З 8
{13}
5000 м ливневой дождь 9/9 720 м
[Cb calv]
+14.9 +11.4 80 +13 +13 1015.1 1001.0 0.8
13 19.08 З 7 30 км в посл. час ливневой дождь 6/6 600 м
[Cb cap]
+17.2 +12.0 71 +16 +18 1015.1 1001.1
14 19.08 ЮЗ 5 40 км в посл. час ливневой дождь 3/3 800 м
[Cu Sc]
+18.2 +11.8 66 +18 +22 1015.3 1001.3
15 19.08 З 7 20 км слаб. ливневой дождь 6/6 900 м
[Cu Sc]
+16.6 +9.9 65 +15 +16 1016.0 1002.0
16 19.08 ЮЗ 5
{13}
30 км в посл. час ливневой дождь 3/3 900 м
[Cu Sc Ci ing]
+17.0 +11.4 70 +16 +18 1015.9 1001.9
17 19.08 З 8 40 км 3/3 1350 м
[Cu hum]
+18.5 +8.8 53 +18 +18 1016.1 1002.2
18 19.08 З 6 30 км {ливн. осадки} 1/1 1350 м
[Cu hum]
+18.1 +9.2 56 +18 +18 1016.7 1002.7 +19.1 3
19 19.08 З 5 35 км 1/1 1350 м
[Cu hum Ac cuf]
+16.6 +8.7 60 +16 +16 1017.3 1003.2
20 19.08 ЮЗ 3 35 км 3/1 1500 м
[Sc diur, vesp Ac cuf Cs]
+14.3 +9.0 70 +13 +13 1018.1 1003.9
21 19.08 ЮЗ 3 30 км 3/1 1200 м
[Sc diur, vesp Ac cuf Cs]
+13.6 +9.9 78 +12 +12 1018.8 1004.6
22 19.08 ЮЗ 3 21 км 1/1 1500 м
[Cu hum]
+12.5 +9.6 82 +11 +11 1019.2 1005.0
23 19.08 ЮЗ 4 18 км 1/1 1500 м
[Sc]
+12.1 +9.8 86 +10 +10 1019.7 1005.4
00 20.08 ЮЗ 4 19 км н/о +12.1 +10.0 87 +10 +10 1019.8 1005.5
01 20.08 ЮЗ 4 17 км н/о +11.6 +9.5 87 +10 +10 1019.7 1005.3
02 20.08 ЮЗ 4 16 км н/о +11.2 +9.4 89 +9 +9 1019.7 1005.4
03 20.08 ЮЗ 4 16 км н/о +11.0 +9.4 90 +9 +9 1020.0 1005.7
04 20.08 ЮЗ 5 16 км н/о +11.3 +9.8 90 +9 +9 1020.2 1005.8
05 20.08 ЮЗ 5 16 км н/о +11.2 +9.8 91 +8 +8 1020.5 1006.2
06 20.08 ЮЗ 4 30 км 3/3 750 м
[Cu Sc]
+11.3 +9.9 91 +9 +9 1021.2 1006.9 +10.6
07 20.08 ЮЗ 4 30 км 1/0
[Ac trans]
+12.1 +10.3 89 +10 +11 1021.9 1007.6
08 20.08 З 5 30 км 1/1 450 м
[Cu hum]
+14.2 +9.3 72 +13 +15 1022.5 1008.3
09 20.08 З 5 30 км 1/1 720 м
[Cu Sc]
+15.3 +8.9 66 +14 +17 1023.1 1008.9
10 20.08 З 6 30 км 1/1 1140 м
[Cu hum]
+16.4 +7.7 56 +15 +19 1023.2 1009.1
11 20.08 ЮЗ 7 30 км 3/3 1300 м
[Cu hum]
+18.0 +7.5 50 +17 +19 1023.2 1009.1
12 20.08 З 7 30 км 3/3 1440 м
[Cu hum]
+17.9 +6.1 46 +17 +20 1023.4 1009.3
13 20.08 З 8 30 км 1/1 1500 м
[Cu hum]
+18.6 +4.7 40 +18 +20 1023.5 1009.5
14 20.08 З 8 30 км 3/3 1500 м
[Cu hum]
+18.9 +5.1 40 +19 +20 1023.9 1009.8
15 20.08 З 7 30 км 1/1 1500 м
[Cu hum]
+18.4 +5.3 42 +18 +20 1024.2 1010.2
16 20.08 З 6 30 км 3/1 1500 м
[Cu hum Ci fib]
+19.0 +6.2 43 +19 +21 1024.3 1010.3
17 20.08 СЗ 4 30 км 8/1 1500 м
[Cu hum Ci fib]
+18.8 +6.7 45 +19 +21 1024.6 1010.6
18 20.08 З 4 30 км 9/1 1500 м
[Cu hum Ci fib]
+18.6 +7.4 48 +19 +19 1025.2 1011.1 +19.6
19 20.08 З 3 30 км 5/1 1500 м
[Sc Ci sp]
+17.3 +7.7 53 +17 +17 1025.7 1011.5
20 20.08 З 3 25 км 5/0
[Ac trans Ci sp]
+15.9 +6.4 53 +16 +16 1026.3 1012.1
21 20.08 ЮЗ 2 22 км 4/0 2000 м
[Ac trans Ci sp]
+12.9 +6.8 66 +12 +12 1026.9 1012.5
22 20.08 ЮЗ 3 20 км 1/0
[Ci fib]
+12.8 +7.9 72 +11 +11 1027.2 1012.9
23 20.08 ЮЗ 3 20 км 4/0
[Ci fib]
+12.7 +8.1 74 +12 +12 1027.2 1012.8
00 21.08 ЮЗ 3 19 км 4/0
[Ci fib]
+12.4 +8.2 76 +11 +11 1027.3 1012.9
01 21.08 Ю 3 25 км 1/0
[Ci fib]
+12.2 +9.0 81 +11 +11 1027.1 1012.7
02 21.08 Ю 3 23 км н/о +11.4 +8.5 82 +10 +10 1027.3 1012.8
03 21.08 ЮЗ 3 20 км ясно +11.3 +8.9 85 +10 +10 1027.3 1012.9
04 21.08 ЮЗ 3 15 км 3/0
[Ac trans Ci fib]
+11.4 +9.2 86 +10 +10 1027.3 1012.9
05 21.08 ЮЗ 3 20 км 3/0
[Ci sp]
+11.0 +9.9 93 +9 +9 1027.5 1013.0
06 21.08 ЮЗ 3 20 км 4/0
[Ci sp]
+11.4 +10.0 91 +9 +10 1027.6 1013.2 +10.1
07 21.08 ЮЗ 3 20 км 9/0
[Ac trans Ci fib]
+14.1 +12.1 88 +13 +14 1027.7 1013.4
08 21.08 ЮЗ 2 20 км 9/0
[Ac trans Ci sp]
+15.3 +12.1 81 +15 +19 1027.8 1013.6
09 21.08 Ю 3 25 км 9/0
[Ac trans Ci fib]
+17.0 +11.3 69 +17 +22 1027.6 1013.4
10 21.08 ЮЗ 5 25 км 9/1 750 м
[Cu hum Ci fib]
+18.3 +10.0 58 +18 +23 1027.5 1013.4
11 21.08 Ю 4 25 км 5/1 1050 м
[Cu hum Ci fib]
+19.4 +10.1 55 +20 +27 1027.2 1013.2
12 21.08 ЮЗ 4 25 км 3/3 1140 м
[Cu hum Ci fib]
+18.9 +10.6 59 +20 +26 1026.7 1012.6
13 21.08 ЮЗ 5 25 км 8/8 1200 м
[Cu hum]
+20.2 +11.4 57 +22 +23 комфорт 1026.6 1012.6
14 21.08 Ю 5 25 км 8/3 1200 м
[Cu Sc Ci fib]
+20.2 +11.3 57 +22 +25 комфорт 1026.1 1012.1
15 21.08 Ю 5 25 км 5/4 1140 м
[Cu hum Ci fib]
+20.7 +11.5 56 +23 +25 комфорт 1025.4 1011.4
16 21.08 Ю 4 25 км 4/3 1050 м
[Cu hum Ci fib]
+20.7 +11.9 57 +23 +25 комфорт 1025.3 1011.4
17 21.08 Ю 6 25 км 3/1 1050 м
[Cu hum Ac trans Ci fib]
+19.9 +11.0 56 +21 +22 комфорт 1025.2 1011.2
18 21.08 Ю 5 25 км 5/1 1200 м
[Cu hum Ci fib]
+18.2 +9.1 55 +18 +18 1025.3 1011.3 +21.1
19 21.08 Ю 4 20 км 8/0
[Ci fib]
+15.5 +9.5 67 +15 +15 1025.5 1011.3
20 21.08 Ю 4 20 км 8/0
[Ci fib]
+14.4 +9.3 71 +13 +13 1025.7 1011.5
21 21.08 Ю 5 20 км 8/0
[Ci fib]
+13.6 +10.3 80 +12 +12 1025.9 1011.6
22 21.08 Ю 4 20 км 8/0
[Ci fib]
+13.3 +11.4 88 +12 +12 1025.9 1011.5
23 21.08 ЮЗ 4 15 км 8/0
[Ci fib]
+13.2 +11.7 91 +11 +11 1025.6 1011.3
00 22.08 ЮЗ 4 15 км 8/0
[Ci fib]
+13.2 +12.0 92 +11 +11 1025.2 1010.9
01 22.08 ЮЗ 5 15 км 8/0
[Ci fib]
+13.1 +12.1 94 +11 +11 1025.1 1010.8
02 22.08 ЮЗ 5 10 км н/о +12.9 +12.0 94 +11 +11 1024.9 1010.6
03 22.08 ЮЗ 4 12 км ясно +12.5 +11.4 93 +10 +10 1024.8 1010.5
04 22.08 Ю 4 10 км н/о +11.8 +10.9 94 +9 +9 1024.8 1010.5
05 22.08 ЮЗ 4 15 км 5/1 1500 м
[Sc Ci fib]
+11.2 +10.4 95 +9 +9 1024.9 1010.5
06 22.08 ЮЗ 2 20 км 1/0
[Ci fib]
+12.2 +11.2 94 +11 +11 1025.2 1010.8 +11.0
07 22.08 ЮЗ 5 20 км 1/0
[Ci fib]
+13.8 +11.6 87 +12 +13 1025.5 1011.2
08 22.08 ЮЗ 6 25 км 1/1 420 м
[Cu hum Ci fib]
+15.1 +11.6 80 +13 +15 1025.4 1011.2
09 22.08 ЮЗ 6 25 км 1/1 540 м
[Cu hum]
+16.4 +12.0 75 +15 +18 1025.6 1011.4
10 22.08 ЮЗ 6 35 км 4/1 840 м
[Cu hum Ci fib]
+18.8 +11.8 64 +19 +22 1025.3 1011.2
11 22.08 ЮЗ 6 40 км 4/1 900 м
[Cu hum Ci fib]
+19.5 +12.0 62 +20 +24 1025.2 1011.2
12 22.08 ЮЗ 6 35 км 4/4 1020 м
[Cu hum Ci fib]
+20.6 +11.9 57 +22 +26 комфорт 1025.0 1011.1
13 22.08 ЮЗ 6 35 км 5/5 1050 м
[Sc Ci fib]
+20.9 +12.6 59 +23 +26 комфорт 1024.7 1010.8
14 22.08 ЮЗ 5 30 км 8/8 1140 м
[Sc]
+21.8 +12.5 55 +24 +25 комфорт 1024.6 1010.7
15 22.08 ЮЗ 5 30 км 8/8 1110 м
[Sc]
+21.2 +12.6 58 +23 +24 комфорт 1024.3 1010.4
16 22.08 ЮЗ 5 30 км 8/8 1050 м
[Sc]
+21.2 +14.0 63 +24 +24 комфорт 1024.5 1010.6
17 22.08 ЮЗ 5 30 км 5/5 1200 м
[Sc Ac trans]
+20.7 +13.7 64 +23 +24 комфорт 1024.3 1010.3
18 22.08 ЮЗ 5 40 км 3/3 1110 м
[Sc Ac cast Ci fib]
+20.4 +13.4 64 +23 +23 комфорт 1024.3 1010.3 +22.2
19 22.08 ЮЗ 4 30 км н/о +19.0 +13.6 71 +20 +20 1024.7 1010.7
20 22.08 Ю 3 30 км н/о +17.0 +13.2 78 +17 +17 1025.4 1011.2
21 22.08 ЮЗ 4 18 км н/о +16.2 +13.4 83 +16 +16 1025.5 1011.3
22 22.08 ЮЗ 3 18 км н/о +15.6 +13.5 87 +15 +15 1025.8 1011.6
23 22.08 ЮЗ 3 16 км н/о +15.1 +13.3 89 +14 +14 1025.8 1011.6
00 23.08 ЮЗ 2 15 км н/о +14.8 +13.5 92 +15 +15 1025.9 1011.7
01 23.08 ЮЗ 2 15 км н/о +14.5 +13.1 91 +14 +14 1025.6 1011.4
02 23.08 ЮВ 2 11 км н/о +12.3 +10.7 90 +12 +12 1025.7 1011.3
03 23.08 ЮЗ 2 15 км н/о +13.0 +12.6 97 +12 +12 1025.6 1011.2
04 23.08 Ю 2 9000 м дымка н/о +12.7 +12.6 99 +12 +12 1025.3 1010.9
05 23.08 Ю 1 500 м туман местами 3/0
[Ci fib]
+12.2 +11.9 98 +13 +13 1025.4 1011.1
06 23.08 Ю 1 12 км в посл. час туман 6/0
[Ci fib]
+13.0 +12.9 99 +13 +13 1025.6 1011.2 +11.5
07 23.08 ЮВ 1 20 км 5/0
[Ci fib]
+15.2 +14.7 97 +16 +18 1025.6 1011.4
08 23.08 В 1 20 км 5/1 360 м
[Cu hum Ci fib]
+18.1 +15.2 83 +19 +23 1025.6 1011.5
09 23.08 В 2 30 км 6/1 540 м
[Cu hum Ci fib]
+18.9 +14.5 76 +21 +27 комфорт 1025.5 1011.5
10 23.08 ЮВ 2 30 км 8/1 660 м
[Cu hum Ci fib]
+20.6 +15.3 72 +24 +32 комфорт 1025.2 1011.2
11 23.08 Ю 2 30 км 5/1 900 м
[Cu hum Ci fib]
+22.3 +14.7 62 +26 +36 жарко 1024.6 1010.8
12 23.08 ЮВ 4 30 км 4/1 960 м
[Cu hum Ci fib]
+23.0 +14.8 60 +27 +35 душно 1024.2 1010.3
13 23.08 Ю 3 30 км 4/1 1050 м
[Cu hum Ci fib]
+23.6 +14.8 58 +26 +35 жарко 1023.9 1010.1
14 23.08 Ю 3 30 км 3/1 1050 м
[Cu hum Ci fib]
+24.4 +14.7 55 +27 +34 жарко 1023.3 1009.5
15 23.08 Ю 4 30 км 1/1 1200 м
[Cu hum Ci fib]
+24.7 +14.0 51 +27 +32 жарко 1022.9 1009.1
16 23.08 Ю 4 40 км 1/1 1200 м
[Cu hum Ci fib]
+24.3 +10.9 43 +26 +29 жарко 1022.6 1008.8
17 23.08 Ю 4 40 км 1/1 1200 м
[Cu hum Ci fib]
+23.4 +12.4 50 +26 +27 жарко 1022.3 1008.5
18 23.08 Ю 4 40 км 1/0
[Ci fib]
+22.3 +11.1 49 +24 +25 комфорт 1022.2 1008.3 +25.3
19 23.08 Ю 3 45 км ливневой дождь н/о +19.1 +10.7 58 +20 +20 1022.2 1008.2
20 23.08 ЮВ 3 40 км в посл. час дождь н/о +15.5 +9.2 66 +15 +15 1022.3 1008.2
21 23.08 Ю 2 35 км н/о +15.4 +10.0 70 +16 +16 1022.1 1007.9
22 23.08 штиль 0 35 км н/о +14.2 +9.0 71 +14 +14 1021.9 1007.6
23 23.08 Ю 1 50 км н/о +13.2 +9.8 80 +13 +13 1021.8 1007.5
00 24.08 ЮВ 3 45 км н/о +12.7 +9.9 83 +11 +11 1021.7 1007.4 0.0
01 24.08 ЮВ 2 23 км н/о +11.2 +9.4 89 +10 +10 1021.7 1007.3
02 24.08 В 3 19 км н/о +11.0 +10.2 95 +9 +9 1021.2 1006.8
03 24.08 ЮВ 2 11 км н/о +11.6 +10.6 94 +11 +11 1020.8 1006.5
04 24.08 СВ 1 13 км н/о +10.6 +9.8 95 +10 +10 1020.6 1006.2
05 24.08 С 1 20 км в посл. час туман н/о +9.5 +8.6 94 +10 +10 1020.5 1006.1
06 24.08 З 1 18 км н/о +10.8 +10.0 95 +11 +11 1020.4 1006.0 +9.1 0.0
07 24.08 З 1 12 км н/о +14.0 +13.1 94 +15 +15 1020.2 1006.0
08 24.08 В 2 12 км н/о +16.6 +14.6 88 +17 +17 1020.0 1005.9
09 24.08 В 3 12 км н/о +20.4 +14.7 70 +23 +23 комфорт 1019.7 1005.8
10 24.08 В 3 18 км н/о +23.7 +15.4 60 +27 +27 жарко 1019.4 1005.7
11 24.08 ЮВ 4 29 км н/о +25.5 +13.4 47 +28 +28 жарко 1018.9 1005.3
12 24.08 ЮВ 4 30 км н/о +26.2 +12.3 42 +28 +28 жарко 1018.6 1004.9
13 24.08 ЮВ 5 30 км н/о +27.0 +11.9 39 +28 +28 жарко 1018.2 1004.7
14 24.08 ЮВ 4 30 км н/о +27.4 +12.4 39 +29 +29 жарко 1017.9 1004.3
15 24.08 ЮВ 4 30 км н/о +27.6 +10.1 33 +28 +28 жарко 1017.5 1003.9
16 24.08 ЮВ 5 30 км н/о +27.3 +10.9 36 +28 +28 жарко 1017.2 1003.6
17 24.08 ЮВ 4 30 км н/о +25.7 +10.1 37 +26 +26 жарко 1017.1 1003.5
18 24.08 ЮВ 4 28 км слаб. ливневой дождь н/о +25.1 +11.6 43 +27 +27 жарко 1016.9 1003.3 +28.1 0.0
19 24.08 ЮВ 2 29 км в посл. час дождь н/о +22.1 +12.1 53 +24 +24 комфорт 1017.0 1003.2
20 24.08 ЮВ 2 18 км н/о +17.9 +11.5 66 +19 +19 1017.4 1003.4
21 24.08 В 2 20 км н/о +17.2 +12.3 73 +18 +18 1017.5 1003.5
22 24.08 В 2 22 км н/о +16.3 +12.1 76 +17 +17 1017.4 1003.3
23 24.08 В 2 24 км н/о +16.7 +12.3 75 +17 +17 1017.4 1003.4
00 25.08 В 2 21 км н/о +17.4 +12.5 73 +18 +18 1017.3 1003.3 0.0
01 25.08 В 2 22 км н/о +17.4 +12.5 73 +18 +18 1017.2 1003.2
02 25.08 В 1 19 км н/о +17.6 +12.7 73 +19 +19 1017.1 1003.2
03 25.08 СВ 2 16 км н/о +16.4 +12.6 78 +17 +17 1017.0 1003.0
04 25.08 СВ 1 15 км н/о +15.7 +12.5 81 +16 +16 1017.0 1002.9
05 25.08 В 2 13 км н/о +15.0 +12.2 83 +15 +15 1017.2 1003.0
06 25.08 В 2 13 км н/о +14.3 +12.2 87 +14 +14 1017.3 1003.1 +14.3 0.0
07 25.08 В 3 12 км н/о +18.4 +14.3 77 +19 +19 1017.3 1003.3
08 25.08 В 3 14 км н/о +19.4 +14.7 74 +21 +21 комфорт 1017.5 1003.6
09 25.08 В 2 18 км н/о +22.6 +15.5 64 +27 +27 душно 1017.7 1004.0
10 25.08 ЮВ 3 30 км н/о +26.1 +15.4 52 +29 +29 жарко 1017.6 1004.0
11 25.08 ЮВ 4 24 км н/о +28.6 +15.7 46 +32 +32 душно 1017.5 1004.0
12 25.08 ЮВ 5 30 км н/о +29.4 +14.2 39 +31 +31 жарко 1017.4 1003.9
13 25.08 ЮВ 5 30 км н/о +30.0 +12.7 35 +31 +31 жарко 1017.5 1004.1
14 25.08 Ю 6 30 км н/о +30.2 +11.5 32 +31 +31 жарко 1017.4 1004.0
15 25.08 ЮВ 6 30 км н/о +30.2 +11.1 31 +31 +31 жарко 1017.1 1003.7
16 25.08 ЮВ 6 30 км н/о +29.9 +11.3 32 +30 +30 жарко 1017.4 1003.9
17 25.08 Ю 5 30 км н/о +28.3 +12.9 39 +30 +30 жарко 1017.5 1004.0

 

Местоположение метеостанции Одихем (Великобритания): широта 51.23 долгота -0.95 высота над уровнем моря 118 м.

В архиве по умолчанию представлена погода в Одихеме за последнюю неделю. Архивные данные за месяц целиком и за предыдущие месяцы, начиная с января 2011 года, Вы можете получить, выбрав интересующий диапазон дат из раскрывающегося списка и нажав кнопку "Ввод!".


*Определитесь, кто Вы:
робот инопланетянин человек

Внимание! Время в таблицах - всемирное. Для получения местного времени необходимо прибавить поправку, которая равна 0 ч.

Смотрите также архив погоды в соседних городах и на ближайших метеорологических станциях:

Погода в Фарнборо (Великобритания) (14 км)
Погода в Чарлвуде (Великобритания) (40 км)
Погода в Мидл Уоллоп (Великобритания) (44 км)
Погода в Бенсоне (Великобритания) (44 км)
Погода в Лондоне (Великобритания) (44 км)
Погода на Острове Торвер (Великобритания) (46 км)
Погода в Хай-Уикоме (Великобритания) (51 км)
Погода в Норхолте (Великобритания) (51 км)
Погода в Ли-он-те-Соленте (Великобритания) (51 км)
Погода в Боскомб Даун (Великобритания) (56 км)

Пояснения к столбцам:

Ветер - указаны скорость ветра в м/с - средняя за 10 мин, порывы в срок и между сроками (в фигурных скобках) и направление, откуда дует ветер: С - северный, СВ - северо-восточный, В - восточный, ЮВ - юго-восточный, Ю - южный, ЮЗ - юго-западный, З - западный, СЗ - северо-западный.
Видимость - горизонтальная дальность видимости в метрах или километрах. При видимости от 1 до 10 км при отсутствии осадков обычно наблюдается дымка, при ухудшении видимости до 1 км и менее - туман. В сухую погоду видимость может ухудшаться дымом, пылью или мглою.
Явления - указаны атмосферные явления, наблюдавшиеся в срок или в последний час перед сроком; фигурными скобками обозначены явления, наблюдавшиеся между сроками (за 1-3 часа до срока); квадратными скобками обозначены град или гололедные отложения с указанием их диаметра в мм.
Облачность - указаны через наклонную черту общая и нижняя облачность в баллах и высота нижней границы облаков в метрах; квадратными скобками обозначены формы облаков: Ci - перистые, Cs - перисто-слоистые, Cc - перисто-кучевые, Ac - высококучевые, As - высокослоистые, Sc - слоисто-кучевые, Ns - слоисто-дождевые, Cu - кучевые, Cb - кучево-дождевые. Подробнее классификацию облаков см. в Атласе облаков (PDF).
T - Температура воздуха - температура, измеренная на высоте 2 м над землей.
Td - Температура точки росы - температура, при понижении до которой содержащийся в воздухе водяной пар достигнет насыщения.
f - Относительная влажность воздуха - влажноcть воздуха, измеренная на высоте 2 м над землей.
Te - Эффективная температура - температура, которую ощущает одетый по сезону человек в тени. Характеристика душности погоды. При расчете учитывается влияние влажности воздуха и скорости ветра на теплоощущения человека.
Tes - Эффективная температура на солнце - температура, которую ощущает человек, с поправкой на солнечный нагрев. Характеристика знойности погоды. Зависит от высоты солнца над горизонтом, облачности и скорости ветра. Ночью, в пасмурную погоду, а также при ветре 12 м/с и более поправка равна нулю.
P - Атмосферное давление - приведенное к уровню моря атмосферное давление.
Po - Атмосферное давление - измеренное на уровне метеостанции атмосферное давление.
Tmin - Минимальная температура - минимум температуры воздуха на высоте 2 м над землей.
Tmax - Максимальная температура - максимум температуры воздуха на высоте 2 м над землей.
R - Количество осадков - Количество выпавших осадков за период времени, мм. При наведении курсора мыши на число - период времени, за который выпало указанное количество осадков.
R24 - Количество осадков - Количество выпавших осадков за 24 часа, мм.
S - Снежный покров - Высота снежного покрова, см. При наведении курсора мыши на число - состояние снежного покрова и степень покрытия местности в баллах.